Simultaneous Nadir Overpasses (SNOs) Predictions

Prediction of SNOs between GOES-16 and NOAA-20 Satellite Orbit:

Table of predicted SNOs for the next 14.0 days since TLE Epoch: 8/21/2020
Index Date Time (GOES-16) GOES-16 Lat,Lon NOAA-20 Lat,Lon Distance(km) Time Diff (sec)
1 08/23/2020 06:41:52 -0.05, -75.19 0.92, -79.49 490.16 80
2 08/24/2020 06:24:07 -0.05, -75.20 -0.08, -74.95 27.13 20
3 08/26/2020 18:26:18 0.06, -75.22 -0.05, -75.73 58.31 80
4 08/27/2020 18:10:12 0.06, -75.23 0.95, -71.20 459.18 80
5 08/29/2020 06:29:20 -0.07, -75.24 0.19, -76.47 140.24 80
6 08/30/2020 06:13:14 -0.07, -75.25 -0.81, -71.94 377.65 80
7 08/31/2020 18:32:29 0.07, -75.28 -0.39, -77.24 223.81 80
8 09/01/2020 18:16:25 0.07, -75.29 0.67, -72.71 294.76 80
9 09/03/2020 06:35:31 -0.08, -75.32 0.53, -77.97 302.88 80
10 09/04/2020 06:19:26 -0.08, -75.34 -0.48, -73.44 216.13 80
